Location: Unspecified
(0.0000°N, 0.0000°E)
Time: 12:09:09
(UTC+00:00)

Vanguard 3 - Pass Details

Date: 20 November 2019
Orbit: 508 x 3263 km, 33.3° (Epoch: 10 December)

Event Time Altitude Azimuth Distance (km) Brightness Sun altitude
Rises 22:29:05 0° 297° (WNW) 4,652 - -62.7°
Reaches altitude 10° 22:33:01 10° 292° (WNW) 3,212 - -63.4°
Maximum altitude 22:39:57 45° 220° (SW) 1,108 - -64.5°
Drops below altitude 10° 22:44:19 10° 146° (SSE) 2,024 - -65.2°
Sets 22:46:18 0° 139° (SE) 2,784 - -65.4°
